KC3UTO Weather Reports


time (UTC)temp
C
wind
direction
speed
KPH
gust
KPH
rain 1hr
cm
rain 24hr
cm
rain mn
cm
humidity
%
barometer
mb
20260504174716 21 282 4.8 12.9 0.00 0.00 0.00 32 1010.3
20260504174214 21 92 3.2 16.1 0.00 0.00 0.00 32 1010.5
20260504173710 21 254 3.2 20.9 0.00 0.00 0.00 30 1010.5
20260504173207 21 247 4.8 12.9 0.00 0.00 0.00 32 1010.6
20260504172704 21 256 9.7 14.5 0.00 0.00 0.00 32 1010.8
20260504172200 21 226 16.1 17.7 0.00 0.00 0.00 30 1010.6
20260504171657 21 353 3.2 14.5 0.00 0.00 0.00 34 1010.8
20260504171154 21 216 9.7 9.7 0.00 0.00 0.00 31 1011.0
20260504170650 20 296 6.4 16.1 0.00 0.00 0.00 32 1011.1
20260504170148 20 235 4.8 19.3 0.00 0.00 0.00 32 1011.2
20260504160107 19 277 4.8 16.1 0.00 0.00 0.00 30 1011.7
20260504151039 18 221 11.3 12.9 0.00 0.00 0.00 31 1012.3
20260504150536 18 260 6.4 14.5 0.00 0.00 0.00 31 1012.6
20260504141002 17 73 1.6 4.8 0.00 0.00 0.00 42 1012.5
20260504140459 17 220 8.0 8.0 0.00 0.00 0.00 41 1012.6
20260504130423 14 234 0.0 4.8 0.00 0.00 0.00 48 1013.5
20260504110310 3 59 3.2 4.8 0.00 0.00 0.00 88 1013.8
20260504100228 1 19 3.2 3.2 0.00 0.00 0.00 88 1013.7
20260504081621 2 26 3.2 4.8 0.00 0.00 0.00 86 1013.5
20260504081117 2 30 3.2 3.2 0.00 0.00 0.00 86 1013.6
20260504080614 2 10 3.2 4.8 0.00 0.00 0.00 85 1013.7
20260504080111 2 55 3.2 4.8 0.00 0.00 0.00 84 1013.6
20260504050427 5 49 3.2 4.8 0.00 0.00 0.00 69 1013.4
20260504045924 5 51 3.2 3.2 0.00 0.00 0.00 68 1013.5
20260504045420 5 58 3.2 4.8 0.00 0.00 0.00 68 1013.4
20260504044916 5 46 3.2 4.8 0.00 0.00 0.00 67 1013.5
20260504044414 5 61 3.2 4.8 0.00 0.00 0.00 68 1013.4
20260504043911 5 56 3.2 4.8 0.00 0.00 0.00 68 1013.5
20260504043408 5 62 3.2 3.2 0.00 0.00 0.00 68 1013.2
20260504042905 5 57 3.2 4.8 0.00 0.00 0.00 69 1013.3
20260504042401 6 47 3.2 4.8 0.00 0.00 0.00 67 1013.3
20260504041858 6 40 3.2 3.2 0.00 0.00 0.00 67 1013.3
20260504041354 6 40 3.2 4.8 0.00 0.00 0.00 68 1013.2
20260504040850 6 42 3.2 4.8 0.00 0.00 0.00 67 1013.3
20260504040348 6 43 3.2 3.2 0.00 0.00 0.00 67 1013.2
20260504035843 6 36 3.2 4.8 0.00 0.00 0.00 66 1013.0
20260504035342 6 43 4.8 4.8 0.00 0.00 0.00 66 1013.0
20260504034838 6 43 3.2 3.2 0.00 0.00 0.00 65 1013.0
20260504034336 6 46 3.2 4.8 0.00 0.00 0.00 64 1013.1
20260504033832 6 57 3.2 4.8 0.00 0.00 0.00 63 1012.8
20260504033331 7 51 4.8 4.8 0.00 0.00 0.00 62 1012.7
20260504032827 7 53 3.2 4.8 0.00 0.00 0.00 61 1012.6
20260504032324 7 62 3.2 4.8 0.00 0.00 0.00 60 1012.6
20260504031821 7 57 3.2 4.8 0.00 0.00 0.00 59 1012.6
20260504031318 7 65 3.2 4.8 0.00 0.00 0.00 59 1012.7
20260504030814 7 47 3.2 4.8 0.00 0.00 0.00 55 1012.5
20260504030312 7 60 3.2 4.8 0.00 0.00 0.00 52 1012.7
20260504025808 7 57 3.2 3.2 0.00 0.00 0.00 53 1012.5
20260504025305 7 41 3.2 3.2 0.00 0.00 0.00 53 1012.6
20260504024801 8 60 3.2 4.8 0.00 0.00 0.00 53 1012.6
20260504024258 8 59 3.2 3.2 0.00 0.00 0.00 50 1012.6
20260504023755 8 62 3.2 4.8 0.00 0.00 0.00 50 1012.6
20260504023251 8 50 4.8 4.8 0.00 0.00 0.00 50 1012.6
20260504022747 8 44 0.0 4.8 0.00 0.00 0.00 50 1012.7
20260504022244 9 46 3.2 4.8 0.00 0.00 0.00 48 1012.5
20260504021741 10 58 3.2 3.2 0.00 0.00 0.00 48 1012.8
20260504021238 10 57 3.2 3.2 0.00 0.00 0.00 48 1012.5
20260504020735 11 44 0.0 3.2 0.00 0.00 0.00 45 1012.6
20260504020231 11 350 0.0 1.6 0.00 0.00 0.00 42 1012.7
20260504015728 11 331 0.0 3.2 0.00 0.00 0.00 41 1012.5
20260504015224 11 352 0.0 1.6 0.00 0.00 0.00 42 1012.4
20260504014720 11 358 1.6 1.6 0.00 0.00 0.00 40 1012.6
20260504014217 11 337 0.0 1.6 0.00 0.00 0.00 40 1012.3
20260504013715 11 299 0.0 1.6 0.00 0.00 0.00 39 1012.2
20260504013212 11 324 1.6 3.2 0.00 0.00 0.00 39 1012.6
20260504012708 11 334 1.6 3.2 0.00 0.00 0.00 39 1012.5
20260504012206 12 339 0.0 3.2 0.00 0.00 0.00 39 1012.5
20260504011703 12 326 1.6 3.2 0.00 0.00 0.00 38 1012.4
20260504011159 12 342 0.0 3.2 0.00 0.00 0.00 38 1012.2
20260504010655 12 326 3.2 3.2 0.00 0.00 0.00 38 1012.2
20260504010151 12 359 1.6 3.2 0.00 0.00 0.00 38 1012.3
20260504005648 12 50 0.0 3.2 0.00 0.00 0.00 38 1012.2
20260504005145 12 331 1.6 3.2 0.00 0.00 0.00 38 1012.1
20260504004643 12 12 1.6 3.2 0.00 0.00 0.00 37 1012.0
20260504004140 12 334 3.2 3.2 0.00 0.00 0.00 37 1012.0
20260504003636 12 323 1.6 3.2 0.00 0.00 0.00 37 1011.9
20260504003133 12 337 1.6 3.2 0.00 0.00 0.00 37 1011.7
20260504002630 12 351 1.6 3.2 0.00 0.00 0.00 36 1011.7
20260504002127 12 315 0.0 3.2 0.00 0.00 0.00 36 1011.7
20260504001625 13 324 1.6 3.2 0.00 0.00 0.00 35 1011.6
20260504001121 13 355 0.0 3.2 0.00 0.00 0.00 36 1011.6
20260504000619 13 4 3.2 3.2 0.00 0.00 0.00 35 1011.5
20260504000116 13 262 3.2 3.2 0.00 0.00 0.00 35 1011.5
20260503235614 13 32 1.6 3.2 0.00 0.00 0.00 34 1011.6
20260503235110 13 309 0.0 3.2 0.00 0.00 0.00 34 1011.2
20260503234608 13 293 0.0 4.8 0.00 0.00 0.00 33 1011.3
20260503234106 14 294 3.2 4.8 0.00 0.00 0.00 32 1011.1
20260503233603 14 316 3.2 4.8 0.00 0.00 0.00 33 1011.3
20260503233058 14 280 4.8 6.4 0.00 0.00 0.00 32 1011.2
20260503232555 15 276 1.6 6.4 0.00 0.00 0.00 31 1011.1
20260503232053 15 330 3.2 3.2 0.00 0.00 0.00 32 1011.1
20260503231551 15 298 3.2 6.4 0.00 0.00 0.00 30 1011.0
20260503231047 15 288 3.2 4.8 0.00 0.00 0.00 31 1011.1
20260503230544 15 340 3.2 6.4 0.00 0.00 0.00 31 1011.2
20260503230041 15 286 3.2 6.4 0.00 0.00 0.00 30 1011.0
20260503225538 15 308 4.8 4.8 0.00 0.00 0.00 30 1011.0
20260503225033 15 289 4.8 4.8 0.00 0.00 0.00 29 1011.0
20260503224531 15 289 4.8 6.4 0.00 0.00 0.00 30 1011.2
20260503224028 15 247 3.2 17.7 0.00 0.00 0.00 29 1011.0
20260503223526 15 238 3.2 8.0 0.00 0.00 0.00 28 1010.9
20260503223021 15 284 3.2 11.3 0.00 0.00 0.00 29 1011.0
20260503222520 15 323 8.0 9.7 0.00 0.00 0.00 28 1011.1
20260503222018 16 249 4.8 9.7 0.00 0.00 0.00 28 1010.9
20260503221516 15 331 6.4 8.0 0.00 0.00 0.00 29 1011.2
20260503221013 15 233 8.0 9.7 0.00 0.00 0.00 28 1011.1
20260503220509 15 278 6.4 12.9 0.00 0.00 0.00 27 1011.0
20260503220005 15 295 12.9 17.7 0.00 0.00 0.00 27 1010.9
20260503215503 15 285 3.2 9.7 0.00 0.00 0.00 27 1011.0
20260503215000 15 268 9.7 12.9 0.00 0.00 0.00 26 1011.0
20260503214458 15 267 4.8 11.3 0.00 0.00 0.00 26 1011.0
20260503213955 15 332 3.2 11.3 0.00 0.00 0.00 28 1010.8
20260503213453 15 240 8.0 9.7 0.00 0.00 0.00 27 1011.0
20260503212949 15 293 8.0 12.9 0.00 0.00 0.00 27 1010.9
20260503212446 15 285 3.2 9.7 0.00 0.00 0.00 26 1010.9
20260503211943 15 326 4.8 8.0 0.00 0.00 0.00 27 1010.8
20260503211441 15 254 8.0 16.1 0.00 0.00 0.00 26 1010.9
20260503210936 15 250 9.7 11.3 0.00 0.00 0.00 27 1010.8
20260503210433 15 295 9.7 19.3 0.00 0.00 0.00 25 1010.9
20260503205928 15 252 8.0 12.9 0.00 0.00 0.00 27 1010.8
20260503205425 15 347 3.2 12.9 0.00 0.00 0.00 27 1010.9
20260503204921 15 295 4.8 9.7 0.00 0.00 0.00 27 1010.9
20260503204419 15 248 12.9 14.5 0.00 0.00 0.00 27 1010.8
20260503203916 15 276 8.0 16.1 0.00 0.00 0.00 27 1011.1
20260503203413 15 329 4.8 6.4 0.00 0.00 0.00 28 1011.0
20260503202910 15 310 6.4 16.1 0.00 0.00 0.00 27 1011.1
20260503202408 15 321 8.0 19.3 0.00 0.00 0.00 27 1011.1
20260503201906 15 314 9.7 17.7 0.00 0.00 0.00 27 1011.0
20260503201403 15 276 9.7 14.5 0.00 0.00 0.00 28 1011.2
20260503200901 15 320 3.2 11.3 0.00 0.00 0.00 29 1011.2
20260503200356 15 269 3.2 6.4 0.00 0.00 0.00 30 1011.2
20260503195854 14 298 9.7 12.9 0.00 0.00 0.00 29 1011.5
20260503195350 15 305 11.3 16.1 0.00 0.00 0.00 29 1011.5
20260503194847 14 19 3.2 14.5 0.00 0.00 0.00 29 1011.5
20260503194343 15 314 8.0 16.1 0.00 0.00 0.00 29 1011.6
20260503193840 14 284 3.2 14.5 0.00 0.00 0.00 30 1011.8
20260503193335 14 267 9.7 14.5 0.00 0.00 0.00 28 1011.6
20260503192831 14 340 8.0 14.5 0.00 0.00 0.00 28 1011.6
20260503192327 14 344 6.4 16.1 0.00 0.00 0.00 27 1011.5
20260503191823 13 330 4.8 12.9 0.00 0.00 0.00 30 1011.7
20260503191321 13 299 9.7 14.5 0.00 0.00 0.00 29 1011.8
20260503190817 13 320 6.4 19.3 0.00 0.00 0.00 29 1011.9
20260503190315 14 293 8.0 11.3 0.00 0.00 0.00 30 1012.0
20260503185811 14 287 4.8 12.9 0.00 0.00 0.00 30 1012.0
20260503185308 14 282 9.7 22.5 0.00 0.00 0.00 29 1012.0
20260503184807 13 259 9.7 12.9 0.00 0.00 0.00 31 1012.0
20260503184304 13 1 3.2 14.5 0.00 0.00 0.00 31 1012.0
20260503183800 12 355 4.8 19.3 0.00 0.00 0.00 30 1012.2
20260503183258 13 326 3.2 8.0 0.00 0.00 0.00 30 1012.2
20260503182755 13 285 6.4 19.3 0.00 0.00 0.00 29 1012.3
20260503182253 13 324 3.2 12.9 0.00 0.00 0.00 30 1012.4
20260503181750 13 268 6.4 9.7 0.00 0.00 0.00 31 1012.3
20260503181247 13 319 9.7 16.1 0.00 0.00 0.00 30 1012.3
20260503180743 13 287 11.3 19.3 0.00 0.00 0.00 30 1012.1
20260503180242 12 333 11.3 14.5 0.00 0.00 0.00 30 1012.2
20260503175738 13 302 8.0 12.9 0.00 0.00 0.00 30 1012.3
20260503175236 13 283 6.4 14.5 0.00 0.00 0.00 30 1012.4